Regional Weather Roundup
Issued by NWS Cleveland, OH

Home | Current Version | Previous Version | Graphics & Text | Print | Product List | Glossary On
Versions: 1 2 3 4 5 6 7 8 9 10 11 12 13 14 15 16 17 18 19 20 21 22 23 24 25 26 27 28 29 30 31 32 33 34 35 36 37 38 39 40 41 42 43 44 45 46 47 48 49 50
000
ASUS41 KCLE 220302
RWRCLE
OHIO REGIONAL WEATHER ROUNDUP
NATIONAL WEATHER SERVICE CLEVELAND, OH
1000 PM EST FRI NOV 21 2014

NOTE: "FAIR" INDICATES FEW OR NO CLOUDS BELOW 12,000 FEET WITH NO
SIGNIFICANT WEATHER AND/OR OBSTRUCTIONS TO VISIBILITY.

OHZ001>008-015>018-024>027-034-035-043-044-220400-
   NORTHWEST OHIO

CITY           SKY/WX    TMP DP  RH WIND       PRES   REMARKS
DEFIANCE       PTCLDY    21  11  65 S8        30.38F WCI  11
FINDLAY        CLEAR     20  11  68 S12       30.38F WCI   8
TOLEDO EXPRESS PTCLDY    18  10  71 S5        30.38F WCI  11
TOLEDO EXEC    PTCLDY    18  10  71 S8        30.40F WCI   8
LIMA           PTCLDY    21  11  65 S10       30.37F WCI  10
$$

OHZ009>014-019>023-028>033-038-089-220400-
   NORTHEAST OHIO

CITY           SKY/WX    TMP DP  RH WIND       PRES   REMARKS
CLE-HOPKINS    PTCLDY    17   8  67 S7        30.44F WCI   8
CLE-LAKEFRONT  PTCLDY    21   9  59 S6        30.42F WCI  13
CUY CO. ARPT   NOT AVBL
LORAIN-ELYRIA  PTCLDY    18   9  68 S8        30.41F WCI   8
ASHTABULA      PTCLDY    15   7  70 S7        30.42F WCI   5
AKRON-CANTON   CLEAR     19   8  62 S8        30.40F WCI   9
WOOSTER        PTCLDY    14   6  70 S5        30.41F WCI   6
MANSFIELD      CLEAR     20   9  62 S9        30.37F WCI   9
YOUNGSTOWN     PTCLDY    18   7  62 S7        30.41F WCI   9
$$

OHZ042-051>053-060>062-070>072-077>081-220400-
  SOUTHWEST OHIO

CITY           SKY/WX    TMP DP  RH WIND       PRES   REMARKS
CINC-COVINGTON FAIR      27   9  46 S3        30.41F
CINC-LUNKEN    CLEAR     22  15  75 CALM      30.45F
HAMILTON       CLEAR     17  12  80 CALM      30.44S
DAYTON         PTCLDY    21  12  68 SE8       30.40F WCI  11
WRIGHT-PAT AFB PTCLDY    20  10  67 S1        30.41F
DAYTON GENERAL PTCLDY    23  11  60 SE6       30.40F WCI  16
WILMINGTON     PTCLDY    17  10  74 SE5       30.40F WCI  10
$$

OHZ036-037-039>041-045>050-054>059-063>069-073>076-082>088-220400-
  CENTRAL AND SOUTHEAST OHIO

CITY           SKY/WX    TMP DP  RH WIND       PRES   REMARKS
COLUMBUS       PTCLDY    22   8  55 SE3       30.43F
OSU AIRPORT    PTCLDY    22   9  57 SE5       30.42F WCI  16
BOLTON FIELD   NOT AVBL
RICKENBACK AFB NOT AVBL
NEWARK         PTCLDY    10   6  84 W3        30.43F
MARION         PTCLDY    17   8  67 S7        30.40F WCI   8
LANCASTER      PTCLDY    13   9  84 CALM      30.44F
ZANESVILLE     PTCLDY    17  10  74 CALM      30.44F
NEW PHILLY     PTCLDY    13   9  84 SE6       30.45F WCI   4
$$


USA.gov is the U.S. government's official web portal to all federal, state and local government web resources and services.